Location: Spruce Knob
(38.6995°N, 79.5330°W)
Time: 20:48:32
(UTC-04:00)

A-11 Canister half - Pass Details

Date: 29 January 2022
Orbit: 1513 x 1686 km, 47.2° (Epoch: 26 May)

Event Time Altitude Azimuth Distance (km) Brightness Sun altitude
Rises 18:41:33 0° 280° (W) 4,745 12.9 -12.9°
Reaches altitude 10° 18:44:49 10° 286° (WNW) 3,739 12.1 -13.5°
Maximum altitude 18:53:55 50° 0° (N) 1,866 9.3 -15.3°
Enters shadow 19:00:12 21° 67° (ENE) 2,910 9.8 -16.5°
Drops below altitude 10° 19:02:50 10° 75° (ENE) 3,671 - -17.0°
Sets 19:06:01 0° 81° (E) 4,653 - -17.6°
